Weather in Pleso

Russia / Arkhangel'skaya Oblast'     61°42′28″N   42°17′21″E
temp.,
°C
wind,
m/s
gust,
m/s
humid.,
%
clouds,
%
prec.,
mm/h
press.,
hPa
HPBL,
m
28 september, tue
tue2800:00+4ne119756 0.0 103320
03:00+3nne119899 0.0 103313
06:00+2n119789 0.0 103410
09:00+6n118367 0.0 1034206
12:00+10nne126486 0.0 1034764
15:00+11n126199 0.0 10341018
18:00+7nw0082100 0.0 103410
21:00+6wnw1188100 0.0 103414
29 september, wed
wed2900:00+5wnw2293100 0.0 103430
03:00+5wnw229550 0.0 103429
06:00+5wnw239628 0.0 103466
09:00+8nw138117 0.0 1034243
12:00+12nw236843 0.0 1033740
15:00+13nw236771 0.0 1032944
18:00+9wnw259199 0.0 103298
21:00+7nw229623 0.0 103235
30 september, thu
thu3000:00+7nw22967 0.0 103220
03:00+6nw22966 0.0 103232
06:00+6nw239621 0.0 103260
09:00+9nw26735 0.0 1032275
12:00+13nw35615 0.0 1032706
15:00+14nw35615 0.0 1031862
18:00+9nw248667 0.0 103162
21:00+7nw229357 0.0 103132
1 october, fri
fri100:00+6nw229433 0.0 103120
03:00+6wnw229553 0.0 103124
06:00+5wnw219561 0.0 103121
09:00+8wnw138392 0.0 1031228
12:00+12wnw237198 0.0 1031627
15:00+12wnw246798 0.0 1030711
18:00+8wnw128385 0.0 103012
21:00+6w2288100 0.0 103022
2 october, sat
sat200:00+5w239172 0.0 103155
03:00+4w23945 0.0 103154
06:00+3w239453 0.0 103059
09:00+8wsw257556 0.0 1030234
12:00+11w246597 0.0 1031610
15:00+11wsw2572100 0.0 1031460
18:00+7wsw229386 0.0 103118
21:00+6sw11945 0.0 103110